Location: Cahas Mountain Overlook
(37.0833°N, 80.1000°W)
Time: 10:32:37
(UTC-04:00)

Vanguard 1 Rocket - Pass Details

Date: 14 February 2026
Orbit: 653 x 4214 km, 34.3° (Epoch: 15 March)

Event Time Altitude Azimuth Distance (km) Brightness Sun altitude
Rises 21:04:27 0° 286° (WNW) 7,356 13.0 -37.3°
Reaches altitude 10° 21:09:23 10° 280° (W) 6,696 12.5 -38.3°
Maximum altitude 21:30:24 41° 220° (SW) 5,270 11.2 -42.3°
Enters shadow 21:45:09 23° 172° (S) 5,991 11.2 -45.1°
